User: anonymous   Login
Location: Unspecified
(0.0000°N, 0.0000°E)
Time: 01:37:39
(UTC+00:00)
Language:

USA 229 - Orbit

View from above orbital plane
View from above orbital plane
View from above satellite
View from above satellite

Ground track
Ground track

The orbit data is extracted from the following two-line orbital elements,

1 37386U 11014A   16044.18916532 0.00000000  00000-0  00000-0 0    07
2 37386  63.4395 182.9554 0027000  11.8842 348.1158 13.40578602    02
Epoch (UTC): 13 February 2016 04:32:23
Eccentricity: 0.0027000
inclination: 63.4395°
perigee height: 1087 km
apogee height: 1127 km
right ascension of ascending node: 182.9554°
argument of perigee: 11.8842°
revolutions per day: 13.40578602
mean anomaly at epoch: 348.1158°
orbit number at epoch: 0

The dashed part of the orbit path shows where the satellite is in the earth's shadow,  

DLR